User: anonymous   Login
Location: Poughquag
(41.6090°N, 73.6820°W)
Time: 18:00:20
(UTC-04:00)
Language:

STRAND 1 - Orbit

View from above orbital plane
View from above orbital plane
View from above satellite
View from above satellite

Ground track
Ground track

The orbit data is extracted from the following two-line orbital elements,

1 39090U 13009E   24197.49457622  .00000712  00000-0  25906-3 0  9991
2 39090  98.3814  25.0011 0009228 160.8901 199.2633 14.36123317596308
Epoch (UTC): 15 July 2024 11:52:11
Eccentricity: 0.0009228
inclination: 98.3814°
perigee height: 765 km
apogee height: 778 km
right ascension of ascending node: 25.0011°
argument of perigee: 160.8901°
revolutions per day: 14.36123317
mean anomaly at epoch: 199.2633°
orbit number at epoch: 59630

The dashed part of the orbit path shows where the satellite is in the earth's shadow,  

DLR